contact:dominique.lefevre@mio.osupytheas.fr, maurice.libes@osupytheas.fr, didier.mallarino@osupytheas.fr
Project:EMSO http://www.emso-fr.org/EMSO-France
Depth: 2436.0 m
Title:EMSO Ligure Ouest : Data MII capteur MICROCAT
DateTime_Computer,Latitude,Longitude,Temperature,Conductivity,Pressure,DateTime_Instrument
DateTime_Computer,Latitude,Longitude,degC,S m-1,dbar,DateTime_Instrument
2020-11-18T00:01:11Z,42.805,6.029,13.2988,4.60049,2470.217,2020-11-18T02:02:08Z
2020-11-18T00:04:14Z,42.805,6.029,13.2994,4.60034,2470.203,2020-11-18T02:05:11Z
2020-11-18T00:07:17Z,42.805,6.029,13.2994,4.60015,2470.203,2020-11-18T02:08:14Z
2020-11-18T00:10:20Z,42.805,6.029,13.3008,4.60031,2470.217,2020-11-18T02:11:17Z
2020-11-18T00:13:23Z,42.805,6.029,13.3004,4.60007,2470.194,2020-11-18T02:14:20Z
2020-11-18T00:16:27Z,42.805,6.029,13.2997,4.60002,2470.203,2020-11-18T02:17:23Z
2020-11-18T00:19:30Z,42.805,6.029,13.3019,4.60035,2470.217,2020-11-18T02:20:26Z
2020-11-18T00:22:33Z,42.805,6.029,13.3028,4.60039,2470.194,2020-11-18T02:23:30Z
2020-11-18T00:25:36Z,42.805,6.029,13.3031,4.60033,2470.194,2020-11-18T02:26:33Z
2020-11-18T00:28:39Z,42.805,6.029,13.3026,4.60016,2470.194,2020-11-18T02:29:36Z
2020-11-18T00:31:42Z,42.805,6.029,13.3002,4.60011,2470.18,2020-11-18T02:32:39Z
2020-11-18T00:34:45Z,42.805,6.029,13.3009,4.60022,2470.156,2020-11-18T02:35:42Z
2020-11-18T00:37:48Z,42.805,6.029,13.3002,4.60024,2470.203,2020-11-18T02:38:45Z
2020-11-18T00:40:52Z,42.805,6.029,13.3009,4.60014,2470.156,2020-11-18T02:41:48Z
2020-11-18T00:43:55Z,42.805,6.029,13.3015,4.60050,2470.171,2020-11-18T02:44:51Z
2020-11-18T00:46:58Z,42.805,6.029,13.3011,4.60023,2470.156,2020-11-18T02:47:55Z
2020-11-18T00:50:01Z,42.805,6.029,13.3000,4.60003,2470.147,2020-11-18T02:50:58Z
2020-11-18T00:53:04Z,42.805,6.029,13.3010,4.60054,2470.156,2020-11-18T02:54:01Z
2020-11-18T00:56:07Z,42.805,6.029,13.3014,4.60012,2470.18,2020-11-18T02:57:04Z
2020-11-18T00:59:10Z,42.805,6.029,13.2998,4.60005,2470.194,2020-11-18T03:00:07Z
2020-11-18T01:02:13Z,42.805,6.029,13.3003,4.60025,2470.171,2020-11-18T03:03:10Z
2020-11-18T01:05:16Z,42.805,6.029,13.3005,4.59995,2470.203,2020-11-18T03:06:13Z
2020-11-18T01:08:20Z,42.805,6.029,13.3011,4.60006,2470.133,2020-11-18T03:09:16Z
2020-11-18T01:11:23Z,42.805,6.029,13.3024,4.60017,2470.143,2020-11-18T03:12:19Z
2020-11-18T01:14:26Z,42.805,6.029,13.3057,4.60061,2470.18,2020-11-18T03:15:23Z
2020-11-18T01:17:29Z,42.805,6.029,13.3000,4.60021,2470.194,2020-11-18T03:18:26Z
2020-11-18T01:20:32Z,42.805,6.029,13.3009,4.60030,2470.156,2020-11-18T03:21:29Z
2020-11-18T01:23:35Z,42.805,6.029,13.3043,4.60015,2470.171,2020-11-18T03:24:32Z
2020-11-18T01:26:38Z,42.805,6.029,13.3021,4.60024,2470.147,2020-11-18T03:27:35Z
2020-11-18T01:29:41Z,42.805,6.029,13.3019,4.60023,2470.156,2020-11-18T03:30:38Z
2020-11-18T01:32:45Z,42.805,6.029,13.3018,4.60028,2470.156,2020-11-18T03:33:41Z
2020-11-18T01:35:48Z,42.805,6.029,13.3021,4.60014,2470.171,2020-11-18T03:36:44Z
2020-11-18T01:38:51Z,42.805,6.029,13.3004,4.60023,2470.156,2020-11-18T03:39:48Z
2020-11-18T01:41:54Z,42.805,6.029,13.3011,4.60003,2470.171,2020-11-18T03:42:51Z
2020-11-18T01:44:57Z,42.805,6.029,13.3024,4.60020,2470.147,2020-11-18T03:45:54Z
2020-11-18T01:48:00Z,42.805,6.029,13.3034,4.60009,2470.11,2020-11-18T03:48:57Z
2020-11-18T01:51:03Z,42.805,6.029,13.3021,4.60026,2470.147,2020-11-18T03:52:00Z
2020-11-18T01:54:06Z,42.805,6.029,13.3064,4.60011,2470.156,2020-11-18T03:55:03Z
2020-11-18T01:57:10Z,42.805,6.029,13.3046,4.60012,2470.133,2020-11-18T03:58:06Z
2020-11-18T02:00:13Z,42.805,6.029,13.3043,4.60003,2470.133,2020-11-18T04:01:09Z
2020-11-18T02:03:16Z,42.805,6.029,13.3038,4.60062,2470.171,2020-11-18T04:04:13Z
2020-11-18T02:06:19Z,42.805,6.029,13.3035,4.60012,2470.133,2020-11-18T04:07:16Z
2020-11-18T02:09:22Z,42.805,6.029,13.3040,4.60016,2470.194,2020-11-18T04:10:19Z
2020-11-18T02:12:25Z,42.805,6.029,13.3034,4.60034,2470.171,2020-11-18T04:13:22Z
2020-11-18T02:15:28Z,42.805,6.029,13.3042,4.60029,2470.171,2020-11-18T04:16:25Z
2020-11-18T02:18:31Z,42.805,6.029,13.3043,4.60026,2470.11,2020-11-18T04:19:28Z
2020-11-18T02:21:35Z,42.805,6.029,13.3044,4.60026,2470.11,2020-11-18T04:22:31Z
2020-11-18T02:24:38Z,42.805,6.029,13.3030,4.60064,2470.171,2020-11-18T04:25:34Z
2020-11-18T02:27:41Z,42.805,6.029,13.3043,4.60049,2470.133,2020-11-18T04:28:38Z
2020-11-18T02:30:44Z,42.805,6.029,13.3043,4.60036,2470.133,2020-11-18T04:31:41Z
2020-11-18T02:33:47Z,42.805,6.029,13.3041,4.60033,2470.171,2020-11-18T04:34:44Z
2020-11-18T02:36:50Z,42.805,6.029,13.3039,4.60043,2470.147,2020-11-18T04:37:47Z
2020-11-18T02:39:53Z,42.805,6.029,13.3036,4.60072,2470.124,2020-11-18T04:40:50Z
2020-11-18T02:42:56Z,42.805,6.029,13.3052,4.60075,2470.147,2020-11-18T04:43:53Z
2020-11-18T02:46:00Z,42.805,6.029,13.3051,4.60073,2470.11,2020-11-18T04:46:56Z
2020-11-18T02:49:03Z,42.805,6.029,13.3062,4.60050,2470.147,2020-11-18T04:49:59Z
2020-11-18T02:52:06Z,42.805,6.029,13.3067,4.60031,2470.124,2020-11-18T04:53:03Z
2020-11-18T02:55:09Z,42.805,6.029,13.3070,4.60025,2470.147,2020-11-18T04:56:06Z
2020-11-18T02:58:12Z,42.805,6.029,13.3068,4.60023,2470.147,2020-11-18T04:59:09Z
2020-11-18T03:01:15Z,42.805,6.029,13.3069,4.60020,2470.171,2020-11-18T05:02:12Z
2020-11-18T03:04:18Z,42.805,6.029,13.3067,4.60019,2470.133,2020-11-18T05:05:15Z
2020-11-18T03:07:21Z,42.805,6.029,13.3062,4.60021,2470.133,2020-11-18T05:08:18Z
2020-11-18T03:10:25Z,42.805,6.029,13.3065,4.60016,2470.147,2020-11-18T05:11:21Z
2020-11-18T03:13:28Z,42.805,6.029,13.3061,4.60014,2470.11,2020-11-18T05:14:24Z
2020-11-18T03:16:31Z,42.805,6.029,13.3055,4.60014,2470.133,2020-11-18T05:17:28Z
2020-11-18T03:19:34Z,42.805,6.029,13.3041,4.60008,2470.124,2020-11-18T05:20:31Z
2020-11-18T03:22:37Z,42.805,6.029,13.3029,4.60016,2470.096,2020-11-18T05:23:34Z
2020-11-18T03:25:40Z,42.805,6.029,13.3021,4.60027,2470.147,2020-11-18T05:26:37Z
2020-11-18T03:28:43Z,42.805,6.029,13.3014,4.60046,2470.147,2020-11-18T05:29:40Z
2020-11-18T03:31:46Z,42.805,6.029,13.3009,4.60053,2470.133,2020-11-18T05:32:43Z
2020-11-18T03:34:50Z,42.805,6.029,13.3025,4.60077,2470.171,2020-11-18T05:35:46Z
2020-11-18T03:37:53Z,42.805,6.029,13.3028,4.60033,2470.147,2020-11-18T05:38:49Z
2020-11-18T03:40:56Z,42.805,6.029,13.3029,4.60014,2470.124,2020-11-18T05:41:53Z
2020-11-18T03:43:59Z,42.805,6.029,13.3032,4.60019,2470.124,2020-11-18T05:44:56Z
2020-11-18T03:47:02Z,42.805,6.029,13.3041,4.60014,2470.124,2020-11-18T05:47:59Z
2020-11-18T03:50:05Z,42.805,6.029,13.3031,4.60037,2470.147,2020-11-18T05:51:02Z
2020-11-18T03:53:08Z,42.805,6.029,13.3005,4.60059,2470.124,2020-11-18T05:54:05Z
2020-11-18T03:56:11Z,42.805,6.029,13.3053,4.60038,2470.147,2020-11-18T05:57:08Z
2020-11-18T03:59:15Z,42.805,6.029,13.3052,4.60000,2470.11,2020-11-18T06:00:11Z
2020-11-18T04:02:18Z,42.805,6.029,13.3048,4.59997,2470.171,2020-11-18T06:03:14Z
2020-11-18T04:05:21Z,42.805,6.029,13.3050,4.59997,2470.11,2020-11-18T06:06:18Z
2020-11-18T04:08:24Z,42.805,6.029,13.3010,4.60011,2470.133,2020-11-18T06:09:21Z
2020-11-18T04:11:27Z,42.805,6.029,13.3019,4.60014,2470.11,2020-11-18T06:12:24Z
2020-11-18T04:14:30Z,42.805,6.029,13.3029,4.59990,2470.147,2020-11-18T06:15:27Z
2020-11-18T04:17:33Z,42.805,6.029,13.3002,4.59994,2470.133,2020-11-18T06:18:30Z
2020-11-18T04:20:36Z,42.805,6.029,13.2993,4.60010,2470.133,2020-11-18T06:21:33Z
2020-11-18T04:23:39Z,42.805,6.029,13.2979,4.59994,2470.203,2020-11-18T06:24:36Z
2020-11-18T04:26:43Z,42.805,6.029,13.2978,4.59988,2470.133,2020-11-18T06:27:39Z
2020-11-18T04:29:46Z,42.805,6.029,13.2977,4.59989,2470.18,2020-11-18T06:30:42Z
2020-11-18T04:32:49Z,42.805,6.029,13.2976,4.59991,2470.171,2020-11-18T06:33:46Z
2020-11-18T04:35:52Z,42.805,6.029,13.2979,4.59994,2470.147,2020-11-18T06:36:49Z
2020-11-18T04:38:55Z,42.805,6.029,13.3012,4.60009,2470.147,2020-11-18T06:39:52Z
2020-11-18T04:41:58Z,42.805,6.029,13.2975,4.60072,2470.171,2020-11-18T06:42:55Z
2020-11-18T04:45:01Z,42.805,6.029,13.2976,4.60029,2470.171,2020-11-18T06:45:58Z
2020-11-18T04:48:05Z,42.805,6.029,13.2975,4.60003,2470.194,2020-11-18T06:49:01Z
2020-11-18T04:51:08Z,42.805,6.029,13.2973,4.59989,2470.133,2020-11-18T06:52:04Z
2020-11-18T04:54:11Z,42.805,6.029,13.2974,4.59996,2470.194,2020-11-18T06:55:08Z
2020-11-18T04:57:14Z,42.805,6.029,13.2974,4.59996,2470.18,2020-11-18T06:58:11Z
2020-11-18T05:00:17Z,42.805,6.029,13.2971,4.60000,2470.156,2020-11-18T07:01:14Z
2020-11-18T05:03:20Z,42.805,6.029,13.2975,4.59998,2470.203,2020-11-18T07:04:17Z
2020-11-18T05:06:23Z,42.805,6.029,13.2972,4.59994,2470.194,2020-11-18T07:07:20Z
2020-11-18T05:09:26Z,42.805,6.029,13.2972,4.59991,2470.194,2020-11-18T07:10:23Z
2020-11-18T05:12:29Z,42.805,6.029,13.2973,4.59993,2470.194,2020-11-18T07:13:26Z
2020-11-18T05:15:33Z,42.805,6.029,13.2976,4.59985,2470.18,2020-11-18T07:16:29Z
2020-11-18T05:18:36Z,42.805,6.029,13.2978,4.59986,2470.156,2020-11-18T07:19:32Z
2020-11-18T05:21:39Z,42.805,6.029,13.2972,4.59984,2470.18,2020-11-18T07:22:36Z
2020-11-18T05:24:42Z,42.805,6.029,13.2975,4.59985,2470.194,2020-11-18T07:25:39Z
2020-11-18T05:27:45Z,42.805,6.029,13.2973,4.59988,2470.203,2020-11-18T07:28:42Z
2020-11-18T05:30:48Z,42.805,6.029,13.2975,4.59990,2470.217,2020-11-18T07:31:45Z
2020-11-18T05:33:51Z,42.805,6.029,13.2974,4.59990,2470.18,2020-11-18T07:34:48Z
2020-11-18T05:36:54Z,42.805,6.029,13.2972,4.59990,2470.217,2020-11-18T07:37:51Z
2020-11-18T05:39:58Z,42.805,6.029,13.2971,4.59988,2470.194,2020-11-18T07:40:54Z
2020-11-18T05:43:01Z,42.805,6.029,13.2974,4.59991,2470.203,2020-11-18T07:43:57Z
2020-11-18T05:46:04Z,42.805,6.029,13.2982,4.59989,2470.264,2020-11-18T07:47:01Z
2020-11-18T05:49:07Z,42.805,6.029,13.2976,4.60008,2470.264,2020-11-18T07:50:04Z
2020-11-18T05:52:10Z,42.805,6.029,13.2976,4.59988,2470.24,2020-11-18T07:53:07Z
2020-11-18T05:55:13Z,42.805,6.029,13.2972,4.59989,2470.227,2020-11-18T07:56:10Z
2020-11-18T05:58:16Z,42.805,6.029,13.2973,4.59995,2470.25,2020-11-18T07:59:13Z
2020-11-18T06:01:19Z,42.805,6.029,13.2974,4.59988,2470.24,2020-11-18T08:02:16Z
2020-11-18T06:04:23Z,42.805,6.029,13.2974,4.59985,2470.227,2020-11-18T08:05:19Z
2020-11-18T06:07:26Z,42.805,6.029,13.2976,4.59986,2470.273,2020-11-18T08:08:22Z
2020-11-18T06:10:29Z,42.805,6.029,13.2975,4.59991,2470.25,2020-11-18T08:11:26Z
2020-11-18T06:13:32Z,42.805,6.029,13.2977,4.59988,2470.264,2020-11-18T08:14:29Z
2020-11-18T06:16:35Z,42.805,6.029,13.2975,4.59986,2470.273,2020-11-18T08:17:32Z
2020-11-18T06:19:38Z,42.805,6.029,13.2977,4.59986,2470.25,2020-11-18T08:20:35Z
2020-11-18T06:22:41Z,42.805,6.029,13.2980,4.60003,2470.273,2020-11-18T08:23:38Z
2020-11-18T06:25:44Z,42.805,6.029,13.3009,4.59991,2470.264,2020-11-18T08:26:41Z
2020-11-18T06:28:48Z,42.805,6.029,13.3003,4.60006,2470.287,2020-11-18T08:29:44Z
2020-11-18T06:31:51Z,42.805,6.029,13.3007,4.60028,2470.273,2020-11-18T08:32:47Z
2020-11-18T06:34:54Z,42.805,6.029,13.2993,4.60007,2470.287,2020-11-18T08:35:51Z
2020-11-18T06:37:57Z,42.805,6.029,13.3004,4.60012,2470.297,2020-11-18T08:38:54Z
2020-11-18T06:41:00Z,42.805,6.029,13.2996,4.60006,2470.287,2020-11-18T08:41:57Z
2020-11-18T06:44:03Z,42.805,6.029,13.2999,4.60011,2470.297,2020-11-18T08:45:00Z
2020-11-18T06:47:06Z,42.805,6.029,13.2997,4.60043,2470.297,2020-11-18T08:48:03Z
2020-11-18T06:50:09Z,42.805,6.029,13.3007,4.60019,2470.334,2020-11-18T08:51:06Z
2020-11-18T06:53:13Z,42.805,6.029,13.3010,4.60006,2470.297,2020-11-18T08:54:09Z
2020-11-18T06:56:16Z,42.805,6.029,13.3006,4.60019,2470.31,2020-11-18T08:57:12Z
2020-11-18T06:59:19Z,42.805,6.029,13.3011,4.60030,2470.334,2020-11-18T09:00:16Z
2020-11-18T07:02:22Z,42.805,6.029,13.3010,4.60020,2470.32,2020-11-18T09:03:19Z
2020-11-18T07:05:25Z,42.805,6.029,13.3005,4.60029,2470.334,2020-11-18T09:06:22Z
2020-11-18T07:08:28Z,42.805,6.029,13.3014,4.60035,2470.334,2020-11-18T09:09:25Z
2020-11-18T07:11:31Z,42.805,6.029,13.3007,4.60004,2470.334,2020-11-18T09:12:28Z
2020-11-18T07:14:34Z,42.805,6.029,13.3015,4.60019,2470.32,2020-11-18T09:15:31Z
2020-11-18T07:17:37Z,42.805,6.029,13.3009,4.60000,2470.343,2020-11-18T09:18:34Z
2020-11-18T07:20:41Z,42.805,6.029,13.3005,4.60050,2470.334,2020-11-18T09:21:37Z
2020-11-18T07:23:44Z,42.805,6.029,13.3011,4.60019,2470.343,2020-11-18T09:24:41Z
2020-11-18T07:26:47Z,42.805,6.029,13.3011,4.60027,2470.357,2020-11-18T09:27:44Z
2020-11-18T07:29:50Z,42.805,6.029,13.3009,4.60031,2470.357,2020-11-18T09:30:47Z
2020-11-18T07:32:53Z,42.805,6.029,13.3005,4.60039,2470.38,2020-11-18T09:33:50Z
2020-11-18T07:35:56Z,42.805,6.029,13.3015,4.60049,2470.366,2020-11-18T09:36:53Z
2020-11-18T07:38:59Z,42.805,6.029,13.3008,4.60044,2470.343,2020-11-18T09:39:56Z
2020-11-18T07:42:02Z,42.805,6.029,13.3014,4.60042,2470.366,2020-11-18T09:42:59Z
2020-11-18T07:45:06Z,42.805,6.029,13.3013,4.60064,2470.343,2020-11-18T09:46:02Z
2020-11-18T07:48:09Z,42.805,6.029,13.3000,4.60061,2470.39,2020-11-18T09:49:05Z
2020-11-18T07:51:12Z,42.805,6.029,13.2992,4.60045,2470.38,2020-11-18T09:52:09Z
2020-11-18T07:54:15Z,42.805,6.029,13.2992,4.60031,2470.39,2020-11-18T09:55:12Z
2020-11-18T07:57:18Z,42.805,6.029,13.2994,4.60041,2470.404,2020-11-18T09:58:15Z
2020-11-18T08:00:21Z,42.805,6.029,13.2996,4.60057,2470.404,2020-11-18T10:01:18Z
2020-11-18T08:03:24Z,42.805,6.029,13.2992,4.60039,2470.38,2020-11-18T10:04:21Z
2020-11-18T08:06:27Z,42.805,6.029,13.2993,4.60032,2470.366,2020-11-18T10:07:24Z
2020-11-18T08:09:31Z,42.805,6.029,13.2990,4.60044,2470.404,2020-11-18T10:10:27Z
2020-11-18T08:12:34Z,42.805,6.029,13.2995,4.60046,2470.38,2020-11-18T10:13:30Z
2020-11-18T08:15:37Z,42.805,6.029,13.2986,4.60023,2470.366,2020-11-18T10:16:34Z
2020-11-18T08:18:40Z,42.805,6.029,13.2983,4.60032,2470.39,2020-11-18T10:19:37Z
2020-11-18T08:21:43Z,42.805,6.029,13.2983,4.60032,2470.39,2020-11-18T10:22:40Z
2020-11-18T08:24:46Z,42.805,6.029,13.2987,4.60034,2470.413,2020-11-18T10:25:43Z
2020-11-18T08:27:49Z,42.805,6.029,13.2985,4.60054,2470.427,2020-11-18T10:28:46Z
2020-11-18T08:30:52Z,42.805,6.029,13.2991,4.60027,2470.366,2020-11-18T10:31:49Z
2020-11-18T08:33:56Z,42.805,6.029,13.3003,4.60043,2470.423,2020-11-18T10:34:52Z
2020-11-18T08:36:59Z,42.805,6.029,13.2996,4.60037,2470.427,2020-11-18T10:37:55Z
2020-11-18T08:40:02Z,42.805,6.029,13.2990,4.60028,2470.404,2020-11-18T10:40:59Z
2020-11-18T08:43:05Z,42.805,6.029,13.2983,4.60039,2470.423,2020-11-18T10:44:02Z
2020-11-18T08:46:08Z,42.805,6.029,13.2984,4.60026,2470.413,2020-11-18T10:47:05Z
2020-11-18T08:49:11Z,42.805,6.029,13.2988,4.60023,2470.413,2020-11-18T10:50:08Z
2020-11-18T08:52:14Z,42.805,6.029,13.2985,4.60027,2470.437,2020-11-18T10:53:11Z
2020-11-18T08:55:17Z,42.805,6.029,13.3009,4.60053,2470.413,2020-11-18T10:56:14Z
2020-11-18T08:58:21Z,42.805,6.029,13.2994,4.60043,2470.413,2020-11-18T10:59:17Z
2020-11-18T09:01:24Z,42.805,6.029,13.2994,4.60020,2470.427,2020-11-18T11:02:21Z
2020-11-18T09:04:27Z,42.805,6.029,13.2991,4.60031,2470.437,2020-11-18T11:05:24Z
2020-11-18T09:07:30Z,42.805,6.029,13.2991,4.60024,2470.413,2020-11-18T11:08:27Z
2020-11-18T09:10:33Z,42.805,6.029,13.2990,4.60033,2470.413,2020-11-18T11:11:30Z
2020-11-18T09:13:36Z,42.805,6.029,13.2992,4.60022,2470.413,2020-11-18T11:14:33Z
2020-11-18T09:16:39Z,42.805,6.029,13.2987,4.60039,2470.39,2020-11-18T11:17:36Z
2020-11-18T09:19:43Z,42.805,6.029,13.3000,4.60039,2470.39,2020-11-18T11:20:39Z
2020-11-18T09:22:46Z,42.805,6.029,13.2994,4.60064,2470.413,2020-11-18T11:23:42Z
2020-11-18T09:25:49Z,42.805,6.029,13.2990,4.60034,2470.46,2020-11-18T11:26:46Z
2020-11-18T09:28:52Z,42.805,6.029,13.2991,4.60031,2470.45,2020-11-18T11:29:49Z
2020-11-18T09:31:55Z,42.805,6.029,13.2983,4.60049,2470.427,2020-11-18T11:32:52Z
2020-11-18T09:34:58Z,42.805,6.029,13.3003,4.60037,2470.427,2020-11-18T11:35:55Z
2020-11-18T09:38:01Z,42.805,6.029,13.2991,4.60029,2470.427,2020-11-18T11:38:58Z
2020-11-18T09:41:04Z,42.805,6.029,13.2993,4.60051,2470.413,2020-11-18T11:42:01Z
2020-11-18T09:44:08Z,42.805,6.029,13.2992,4.60047,2470.413,2020-11-18T11:45:04Z
2020-11-18T09:47:11Z,42.805,6.029,13.2987,4.60024,2470.45,2020-11-18T11:48:07Z
2020-11-18T09:50:14Z,42.805,6.029,13.2989,4.60016,2470.366,2020-11-18T11:51:11Z
2020-11-18T09:53:17Z,42.805,6.029,13.2991,4.60039,2470.413,2020-11-18T11:54:14Z
2020-11-18T09:56:20Z,42.805,6.029,13.2986,4.60031,2470.427,2020-11-18T11:57:17Z
2020-11-18T09:59:23Z,42.805,6.029,13.2993,4.60049,2470.45,2020-11-18T12:00:20Z
2020-11-18T10:02:26Z,42.805,6.029,13.2994,4.60011,2470.39,2020-11-18T12:03:23Z
2020-11-18T10:05:29Z,42.805,6.029,13.2998,4.60014,2470.427,2020-11-18T12:06:26Z
2020-11-18T10:08:33Z,42.805,6.029,13.2996,4.60031,2470.427,2020-11-18T12:09:29Z
2020-11-18T10:11:36Z,42.805,6.029,13.2998,4.60019,2470.404,2020-11-18T12:12:32Z
2020-11-18T10:14:39Z,42.805,6.029,13.2990,4.60026,2470.437,2020-11-18T12:15:36Z
2020-11-18T10:17:42Z,42.805,6.029,13.2990,4.60031,2470.39,2020-11-18T12:18:39Z
2020-11-18T10:20:45Z,42.805,6.029,13.2994,4.60016,2470.413,2020-11-18T12:21:42Z
2020-11-18T10:23:48Z,42.805,6.029,13.2983,4.60021,2470.437,2020-11-18T12:24:45Z
2020-11-18T10:26:51Z,42.805,6.029,13.2993,4.60055,2470.39,2020-11-18T12:27:48Z
2020-11-18T10:29:54Z,42.805,6.029,13.3002,4.60057,2470.39,2020-11-18T12:30:51Z
2020-11-18T10:32:58Z,42.805,6.029,13.2998,4.60024,2470.39,2020-11-18T12:33:54Z
2020-11-18T10:36:01Z,42.805,6.029,13.2983,4.60046,2470.413,2020-11-18T12:36:57Z
2020-11-18T10:39:04Z,42.805,6.029,13.2997,4.60033,2470.39,2020-11-18T12:40:01Z
2020-11-18T10:42:07Z,42.805,6.029,13.2991,4.60023,2470.45,2020-11-18T12:43:04Z
2020-11-18T10:45:10Z,42.805,6.029,13.2990,4.60053,2470.366,2020-11-18T12:46:07Z
2020-11-18T10:48:13Z,42.805,6.029,13.2984,4.60017,2470.413,2020-11-18T12:49:10Z
2020-11-18T10:51:16Z,42.805,6.029,13.2983,4.60047,2470.39,2020-11-18T12:52:13Z
2020-11-18T10:54:19Z,42.805,6.029,13.2996,4.60029,2470.366,2020-11-18T12:55:16Z
2020-11-18T10:57:23Z,42.805,6.029,13.3001,4.60069,2470.366,2020-11-18T12:58:19Z
2020-11-18T11:00:26Z,42.805,6.029,13.2993,4.60049,2470.366,2020-11-18T13:01:23Z
2020-11-18T11:03:29Z,42.805,6.029,13.2993,4.60054,2470.38,2020-11-18T13:04:26Z
2020-11-18T11:06:32Z,42.805,6.029,13.2993,4.60062,2470.366,2020-11-18T13:07:29Z
2020-11-18T11:09:35Z,42.805,6.029,13.2992,4.60033,2470.38,2020-11-18T13:10:32Z
2020-11-18T11:12:38Z,42.805,6.029,13.2993,4.60039,2470.366,2020-11-18T13:13:35Z
2020-11-18T11:15:41Z,42.805,6.029,13.3000,4.60030,2470.39,2020-11-18T13:16:38Z
2020-11-18T11:18:44Z,42.805,6.029,13.2982,4.60044,2470.39,2020-11-18T13:19:41Z
2020-11-18T11:21:48Z,42.805,6.029,13.3001,4.60049,2470.32,2020-11-18T13:22:44Z
2020-11-18T11:24:51Z,42.805,6.029,13.3003,4.60054,2470.357,2020-11-18T13:25:48Z
2020-11-18T11:27:54Z,42.805,6.029,13.2990,4.60033,2470.343,2020-11-18T13:28:51Z
2020-11-18T11:30:57Z,42.805,6.029,13.3025,4.60050,2470.343,2020-11-18T13:31:54Z
2020-11-18T11:34:00Z,42.805,6.029,13.3001,4.60031,2470.343,2020-11-18T13:34:57Z
2020-11-18T11:37:03Z,42.805,6.029,13.3014,4.60029,2470.38,2020-11-18T13:38:00Z
2020-11-18T11:40:06Z,42.805,6.029,13.3026,4.60069,2470.38,2020-11-18T13:41:03Z
2020-11-18T11:43:10Z,42.805,6.029,13.3001,4.60094,2470.357,2020-11-18T13:44:06Z
2020-11-18T11:46:13Z,42.805,6.029,13.3009,4.60069,2470.38,2020-11-18T13:47:09Z
2020-11-18T11:49:16Z,42.805,6.029,13.2996,4.60089,2470.39,2020-11-18T13:50:13Z
2020-11-18T11:52:19Z,42.805,6.029,13.3009,4.60049,2470.39,2020-11-18T13:53:16Z
2020-11-18T11:55:22Z,42.805,6.029,13.3007,4.60046,2470.33,2020-11-18T13:56:19Z
2020-11-18T11:58:25Z,42.805,6.029,13.2989,4.60032,2470.357,2020-11-18T13:59:22Z
2020-11-18T12:01:28Z,42.805,6.029,13.2985,4.60003,2470.343,2020-11-18T14:02:25Z
2020-11-18T12:04:31Z,42.805,6.029,13.2989,4.60042,2470.334,2020-11-18T14:05:28Z
2020-11-18T12:07:35Z,42.805,6.029,13.2994,4.60048,2470.38,2020-11-18T14:08:31Z
2020-11-18T12:10:38Z,42.805,6.029,13.2996,4.60050,2470.38,2020-11-18T14:11:34Z
2020-11-18T12:13:41Z,42.805,6.029,13.3007,4.60026,2470.357,2020-11-18T14:14:38Z
2020-11-18T12:16:44Z,42.805,6.029,13.2991,4.60049,2470.32,2020-11-18T14:17:41Z
2020-11-18T12:19:47Z,42.805,6.029,13.3004,4.60042,2470.32,2020-11-18T14:20:44Z
2020-11-18T12:22:50Z,42.805,6.029,13.3021,4.60048,2470.343,2020-11-18T14:23:47Z
2020-11-18T12:25:53Z,42.805,6.029,13.3030,4.60061,2470.357,2020-11-18T14:26:50Z
2020-11-18T12:28:56Z,42.805,6.029,13.3035,4.60054,2470.366,2020-11-18T14:29:53Z
2020-11-18T12:32:00Z,42.805,6.029,13.3030,4.60077,2470.404,2020-11-18T14:32:56Z
2020-11-18T12:35:03Z,42.805,6.029,13.3044,4.60037,2470.297,2020-11-18T14:35:59Z
2020-11-18T12:38:06Z,42.805,6.029,13.3015,4.60050,2470.334,2020-11-18T14:39:03Z
2020-11-18T12:41:09Z,42.805,6.029,13.3047,4.60064,2470.357,2020-11-18T14:42:06Z
2020-11-18T12:44:12Z,42.805,6.029,13.3034,4.60039,2470.32,2020-11-18T14:45:09Z
2020-11-18T12:47:15Z,42.805,6.029,13.3032,4.60021,2470.31,2020-11-18T14:48:12Z
2020-11-18T12:50:18Z,42.805,6.029,13.3017,4.60045,2470.32,2020-11-18T14:51:15Z
2020-11-18T12:53:21Z,42.805,6.029,13.3032,4.60049,2470.334,2020-11-18T14:54:18Z
2020-11-18T12:56:25Z,42.805,6.029,13.3041,4.60050,2470.31,2020-11-18T14:57:21Z
2020-11-18T12:59:28Z,42.805,6.029,13.3015,4.60069,2470.334,2020-11-18T15:00:24Z
2020-11-18T13:02:31Z,42.805,6.029,13.3007,4.60074,2470.357,2020-11-18T15:03:28Z
2020-11-18T13:05:34Z,42.805,6.029,13.3019,4.60034,2470.31,2020-11-18T15:06:31Z
2020-11-18T13:08:37Z,42.805,6.029,13.3031,4.60064,2470.334,2020-11-18T15:09:34Z
2020-11-18T13:11:40Z,42.805,6.029,13.3031,4.60064,2470.31,2020-11-18T15:12:37Z
2020-11-18T13:14:43Z,42.805,6.029,13.3044,4.60044,2470.297,2020-11-18T15:15:40Z
2020-11-18T13:17:46Z,42.805,6.029,13.3048,4.60087,2470.297,2020-11-18T15:18:43Z
2020-11-18T13:20:50Z,42.805,6.029,13.3056,4.60022,2470.334,2020-11-18T15:21:46Z
2020-11-18T13:23:53Z,42.805,6.029,13.3029,4.60046,2470.273,2020-11-18T15:24:49Z
2020-11-18T13:26:56Z,42.805,6.029,13.3040,4.60027,2470.31,2020-11-18T15:27:53Z
2020-11-18T13:29:59Z,42.805,6.029,13.3041,4.60042,2470.287,2020-11-18T15:30:56Z
2020-11-18T13:33:02Z,42.805,6.029,13.3040,4.60032,2470.287,2020-11-18T15:33:59Z
2020-11-18T13:36:05Z,42.805,6.029,13.3052,4.60009,2470.31,2020-11-18T15:37:02Z
2020-11-18T13:39:08Z,42.805,6.029,13.3023,4.60005,2470.287,2020-11-18T15:40:05Z
2020-11-18T13:42:11Z,42.805,6.029,13.3011,4.60009,2470.287,2020-11-18T15:43:08Z
2020-11-18T13:45:15Z,42.805,6.029,13.3022,4.60044,2470.287,2020-11-18T15:46:11Z
2020-11-18T13:48:18Z,42.805,6.029,13.3021,4.60021,2470.25,2020-11-18T15:49:15Z
2020-11-18T13:51:21Z,42.805,6.029,13.3001,4.60036,2470.25,2020-11-18T15:52:18Z
2020-11-18T13:54:24Z,42.805,6.029,13.3006,4.60007,2470.287,2020-11-18T15:55:21Z
2020-11-18T13:57:27Z,42.805,6.029,13.3015,4.60004,2470.287,2020-11-18T15:58:24Z
2020-11-18T14:00:30Z,42.805,6.029,13.3014,4.60017,2470.264,2020-11-18T16:01:27Z
2020-11-18T14:03:33Z,42.805,6.029,13.2993,4.60016,2470.287,2020-11-18T16:04:30Z
2020-11-18T14:06:36Z,42.805,6.029,13.3003,4.60002,2470.287,2020-11-18T16:07:33Z
2020-11-18T14:09:40Z,42.805,6.029,13.3015,4.60015,2470.264,2020-11-18T16:10:36Z
2020-11-18T14:12:43Z,42.805,6.029,13.3047,4.60048,2470.287,2020-11-18T16:13:40Z
2020-11-18T14:15:46Z,42.805,6.029,13.3033,4.60023,2470.273,2020-11-18T16:16:43Z
2020-11-18T14:18:49Z,42.805,6.029,13.3019,4.60029,2470.24,2020-11-18T16:19:46Z
2020-11-18T14:21:52Z,42.805,6.029,13.3043,4.60041,2470.264,2020-11-18T16:22:49Z
2020-11-18T14:24:55Z,42.805,6.029,13.3021,4.60031,2470.264,2020-11-18T16:25:52Z
2020-11-18T14:27:58Z,42.805,6.029,13.3016,4.60038,2470.24,2020-11-18T16:28:55Z
2020-11-18T14:31:02Z,42.805,6.029,13.3023,4.60026,2470.264,2020-11-18T16:31:58Z
2020-11-18T14:34:05Z,42.805,6.029,13.3036,4.60003,2470.264,2020-11-18T16:35:01Z
2020-11-18T14:37:08Z,42.805,6.029,13.3034,4.60014,2470.227,2020-11-18T16:38:05Z
2020-11-18T14:40:11Z,42.805,6.029,13.3052,4.60004,2470.227,2020-11-18T16:41:08Z
2020-11-18T14:43:14Z,42.805,6.029,13.3037,4.60032,2470.227,2020-11-18T16:44:11Z
2020-11-18T14:46:17Z,42.805,6.029,13.3036,4.60026,2470.264,2020-11-18T16:47:14Z
2020-11-18T14:49:20Z,42.805,6.029,13.3032,4.60026,2470.24,2020-11-18T16:50:17Z
2020-11-18T14:52:23Z,42.805,6.029,13.3027,4.60026,2470.25,2020-11-18T16:53:20Z
2020-11-18T14:55:27Z,42.805,6.029,13.3043,4.60041,2470.24,2020-11-18T16:56:23Z
2020-11-18T14:58:30Z,42.805,6.029,13.3060,4.60001,2470.254,2020-11-18T16:59:26Z
2020-11-18T15:01:33Z,42.805,6.029,13.3042,4.60002,2470.24,2020-11-18T17:02:30Z